,,Stat6,,Stat2,,Stat8,,Stat9,,Stat10,,Wind1,,Wind1,
time,status,PA1M_AVG,status,PR1M_SUM,status,RH1M_AVG,status,SR1M_AVG,status,TA1M_AVG,status,W1dAve1m,status,W1sAve1m,
2003-12-26, 00:00:00,VALID,918.728,VALID,0,VALID,98.2836,VALID,0,VALID,19.9101,VALID,17,VALID,0.485263,
2003-12-26, 00:01:00,VALID,918.695,VALID,0,VALID,98.192,VALID,0,VALID,19.8873,VALID,28,VALID,0.4375,
2003-12-26, 00:02:00,VALID,918.695,VALID,0,VALID,98.1272,VALID,-0.0169808,VALID,19.8749,VALID,31,VALID,0.600038,
2003-12-26, 00:03:00,VALID,918.697,VALID,0,VALID,98.0445,VALID,0,VALID,19.8617,VALID,32,VALID,0.49809,
2003-12-26, 00:04:00,VALID,918.675,VALID,0,VALID,97.9949,VALID,0,VALID,19.8354,VALID,32,VALID,0.217842,
2003-12-26, 00:05:00,VALID,918.659,VALID,0,VALID,97.9759,VALID,-0.0169808,VALID,19.8326,VALID,32,VALID,0.0915698,
2003-12-26, 00:06:00,VALID,918.643,VALID,0,VALID,97.9161,VALID,0,VALID,19.823,VALID,34,VALID,0.231179,
2003-12-26, 00:07:00,VALID,918.606,VALID,0,VALID,97.8716,VALID,-0.0169808,VALID,19.8234,VALID,35,VALID,0.137607,
2003-12-26, 00:08:00,VALID,918.583,VALID,0,VALID,97.7902,VALID,0.0169808,VALID,19.8135,VALID,36,VALID,0.244913,
2003-12-26, 00:09:00,VALID,918.546,VALID,0,VALID,97.7902,VALID,0,VALID,19.8066,VALID,36,VALID,0.338068,
2003-12-26, 00:10:00,VALID,918.529,VALID,0,VALID,97.7737,VALID,-0.0169808,VALID,19.8008,VALID,84,VALID,0.439732,
2003-12-26, 00:11:00,VALID,918.513,VALID,0,VALID,97.3006,VALID,0,VALID,19.7718,VALID,24,VALID,0.370164,
2003-12-26, 00:12:00,VALID,918.5,VALID,0,VALID,96.8365,VALID,0,VALID,19.7072,VALID,41,VALID,0.473704,
2003-12-26, 00:13:00,VALID,918.466,VALID,0,VALID,96.7208,VALID,-0.0169808,VALID,19.6682,VALID,32,VALID,0.343932,
2003-12-26, 00:14:00,VALID,918.463,VALID,0,VALID,97.0069,VALID,0,VALID,19.6555,VALID,37,VALID,0.560683,
2003-12-26, 00:15:00,VALID,918.424,VALID,0,VALID,97.4736,VALID,-0.0169808,VALID,19.6876,VALID,51,VALID,0.616815,
2003-12-26, 00:16:00,VALID,918.404,VALID,0,VALID,97.5066,VALID,0,VALID,19.7136,VALID,73,VALID,0.565972,
2003-12-26, 00:17:00,VALID,918.385,VALID,0,VALID,97.3566,VALID,0,VALID,19.7363,VALID,82,VALID,0.601017,
2003-12-26, 00:18:00,VALID,918.368,VALID,0,VALID,97.3019,VALID,0.0169808,VALID,19.7303,VALID,101,VALID,0.744284,
2003-12-26, 00:19:00,VALID,918.356,VALID,0,VALID,97.2053,VALID,0,VALID,19.74,VALID,105,VALID,0.659979,
2003-12-26, 00:20:00,VALID,918.347,VALID,0,VALID,97.0361,VALID,0,VALID,19.7236,VALID,106,VALID,0.54184,
2003-12-26, 00:21:00,VALID,918.338,VALID,0,VALID,96.9535,VALID,0,VALID,19.6746,VALID,106,VALID,0.623884,
2003-12-26, 00:22:00,VALID,918.325,VALID,0,VALID,97.2676,VALID,0,VALID,19.6292,VALID,108,VALID,0.546113,
2003-12-26, 00:23:00,VALID,918.298,VALID,0,VALID,97.3935,VALID,0.0169808,VALID,19.6235,VALID,108,VALID,0.456577,
2003-12-26, 00:24:00,VALID,918.285,VALID,0,VALID,97.5359,VALID,0,VALID,19.6071,VALID,108,VALID,0.442708,
2003-12-26, 00:25:00,VALID,918.29,VALID,0,VALID,97.6236,VALID,-0.0169808,VALID,19.6036,VALID,108,VALID,0.293478,
2003-12-26, 00:26:00,VALID,918.293,VALID,0,VALID,97.4316,VALID,0.0169808,VALID,19.5942,VALID,108,VALID,0.255664,
2003-12-26, 00:27:00,VALID,918.287,VALID,0,VALID,97.3973,VALID,0,VALID,19.5619,VALID,108,VALID,0.184961,
2003-12-26, 00:28:00,VALID,918.287,VALID,0,VALID,96.6063,VALID,0,VALID,19.471,VALID,108,VALID,0,
2003-12-26, 00:29:00,VALID,918.287,VALID,0,VALID,96.085,VALID,0,VALID,19.3391,VALID,108,VALID,0,
2003-12-26, 00:30:00,VALID,918.288,VALID,0,VALID,96.483,VALID,-0.0169808,VALID,19.2712,VALID,108,VALID,0,
2003-12-26, 00:31:00,VALID,918.277,VALID,0,VALID,96.9904,VALID,0.0169808,VALID,19.271,VALID,108,VALID,0,
2003-12-26, 00:32:00,VALID,918.28,VALID,0,VALID,97.2777,VALID,0.0169808,VALID,19.2779,VALID,108,VALID,0.0930233,
2003-12-26, 00:33:00,VALID,918.271,VALID,0,VALID,97.761,VALID,0.0169808,VALID,19.3162,VALID,114,VALID,0.167873,
2003-12-26, 00:34:00,VALID,918.254,VALID,0,VALID,98.028,VALID,0.0169808,VALID,19.3709,VALID,181,VALID,0.391352,
2003-12-26, 00:35:00,VALID,918.239,VALID,0,VALID,98.3306,VALID,0,VALID,19.4198,VALID,242,VALID,0.674423,
2003-12-26, 00:36:00,VALID,918.232,VALID,0,VALID,98.4044,VALID,0,VALID,19.4429,VALID,243,VALID,0.252418,
2003-12-26, 00:37:00,VALID,918.22,VALID,0,VALID,98.4031,VALID,0,VALID,19.4431,VALID,243,VALID,0.0491319,
2003-12-26, 00:38:00,VALID,918.214,VALID,0,VALID,98.3853,VALID,0.0169808,VALID,19.4359,VALID,243,VALID,0,
2003-12-26, 00:39:00,VALID,918.206,VALID,0,VALID,98.3612,VALID,0,VALID,19.4463,VALID,243,VALID,0.0144097,
2003-12-26, 00:40:00,VALID,918.202,VALID,0,VALID,98.2238,VALID,0.0339617,VALID,19.4262,VALID,243,VALID,0,
2003-12-26, 00:41:00,VALID,918.23,VALID,0,VALID,97.9034,VALID,0.0169808,VALID,19.391,VALID,243,VALID,0,
2003-12-26, 00:42:00,VALID,918.243,VALID,0,VALID,97.5105,VALID,0,VALID,19.3423,VALID,244,VALID,0.00926599,
2003-12-26, 00:43:00,VALID,918.247,VALID,0,VALID,97.9835,VALID,0,VALID,19.3748,VALID,287,VALID,0.583133,
2003-12-26, 00:44:00,VALID,918.23,VALID,0,VALID,98.3739,VALID,0,VALID,19.4491,VALID,294,VALID,0.0831473,
2003-12-26, 00:45:00,VALID,918.226,VALID,0,VALID,98.4095,VALID,0,VALID,19.4615,VALID,294,VALID,0.158854,
2003-12-26, 00:46:00,VALID,918.222,VALID,0,VALID,98.4565,VALID,0.0169808,VALID,19.4784,VALID,292,VALID,0.42242,
2003-12-26, 00:47:00,VALID,918.235,VALID,0,VALID,98.5672,VALID,0,VALID,19.4851,VALID,279,VALID,0.46782,
2003-12-26, 00:48:00,VALID,918.238,VALID,0,VALID,98.7795,VALID,0,VALID,19.4945,VALID,255,VALID,0.52763,
2003-12-26, 00:49:00,VALID,918.239,VALID,0,VALID,98.8393,VALID,0,VALID,19.5012,VALID,253,VALID,0.23331,
2003-12-26, 00:50:00,VALID,918.232,VALID,0,VALID,98.7401,VALID,0.0169808,VALID,19.4722,VALID,253,VALID,0.0455078,
2003-12-26, 00:51:00,VALID,918.234,VALID,0,VALID,98.6117,VALID,0,VALID,19.4429,VALID,253,VALID,0,
2003-12-26, 00:52:00,VALID,918.232,VALID,0,VALID,98.6269,VALID,0.0169808,VALID,19.4394,VALID,253,VALID,0,
2003-12-26, 00:53:00,VALID,918.251,VALID,0,VALID,98.5672,VALID,0,VALID,19.4339,VALID,253,VALID,0.0199855,
2003-12-26, 00:54:00,VALID,918.259,VALID,0,VALID,98.6104,VALID,0,VALID,19.4173,VALID,239,VALID,0.265244,
2003-12-26, 00:55:00,VALID,918.274,VALID,0,VALID,98.6956,VALID,0,VALID,19.4334,VALID,233,VALID,0.122852,
2003-12-26, 00:56:00,VALID,918.283,VALID,0,VALID,98.5646,VALID,0,VALID,19.4014,VALID,233,VALID,0,
2003-12-26, 00:57:00,VALID,918.289,VALID,0,VALID,98.2785,VALID,-0.0169808,VALID,19.3338,VALID,233,VALID,0,
2003-12-26, 00:58:00,VALID,918.282,VALID,0,VALID,97.8106,VALID,-0.0339617,VALID,19.2531,VALID,233,VALID,0.186955,
2003-12-26, 00:59:00,VALID,918.273,VALID,0,VALID,97.6986,VALID,0,VALID,19.192,VALID,233,VALID,0.126453,
2003-12-26, 01:00:00,VALID,918.268,VALID,0,VALID,97.6821,VALID,-0.0169808,VALID,19.1393,VALID,233,VALID,0.128729,
2003-12-26, 01:01:00,VALID,918.251,VALID,0,VALID,98.2086,VALID,-0.0169808,VALID,19.1726,VALID,233,VALID,0,
2003-12-26, 01:02:00,VALID,918.241,VALID,0,VALID,98.6091,VALID,0.0169808,VALID,19.2074,VALID,233,VALID,0.00109012,
2003-12-26, 01:03:00,VALID,918.215,VALID,0,VALID,98.8062,VALID,-0.0169808,VALID,19.2337,VALID,233,VALID,0,
2003-12-26, 01:04:00,VALID,918.202,VALID,0,VALID,99.0669,VALID,0,VALID,19.2856,VALID,233,VALID,0,
2003-12-26, 01:05:00,VALID,918.18,VALID,0,VALID,99.2729,VALID,0,VALID,19.301,VALID,233,VALID,0,
2003-12-26, 01:06:00,VALID,918.174,VALID,0,VALID,99.4039,VALID,0,VALID,19.3435,VALID,289,VALID,0.141897,
2003-12-26, 01:07:00,VALID,918.18,VALID,0,VALID,99.2665,VALID,0,VALID,19.2948,VALID,303,VALID,0.0565476,
2003-12-26, 01:08:00,VALID,918.172,VALID,0,VALID,99.3021,VALID,-0.0169808,VALID,19.2725,VALID,303,VALID,0.250533,
2003-12-26, 01:09:00,VALID,918.154,VALID,0,VALID,99.4573,VALID,-0.0169808,VALID,19.2692,VALID,303,VALID,0.216667,
2003-12-26, 01:10:00,VALID,918.132,VALID,0,VALID,99.6099,VALID,0,VALID,19.2978,VALID,303,VALID,0.163681,
2003-12-26, 01:11:00,VALID,918.117,VALID,0,VALID,99.6811,VALID,0,VALID,19.2978,VALID,303,VALID,0.228379,
2003-12-26, 01:12:00,VALID,918.117,VALID,0,VALID,99.6264,VALID,-0.0169808,VALID,19.2948,VALID,312,VALID,0.321429,
2003-12-26, 01:13:00,VALID,918.112,VALID,0,VALID,99.3403,VALID,0,VALID,19.1972,VALID,355,VALID,0.595881,
2003-12-26, 01:14:00,VALID,918.103,VALID,0,VALID,99.3072,VALID,0,VALID,19.12,VALID,7,VALID,0.617001,
2003-12-26, 01:15:00,VALID,918.1,VALID,0,VALID,99.5565,VALID,0,VALID,19.1269,VALID,7,VALID,0.513263,
2003-12-26, 01:16:00,VALID,918.091,VALID,0,VALID,99.7472,VALID,-0.0169808,VALID,19.147,VALID,7,VALID,0.234012,
2003-12-26, 01:17:00,VALID,918.09,VALID,0,VALID,99.8311,VALID,0,VALID,19.1657,VALID,7,VALID,0,
2003-12-26, 01:18:00,VALID,918.068,VALID,0,VALID,99.8934,VALID,0,VALID,19.1719,VALID,7,VALID,0,
2003-12-26, 01:19:00,VALID,918.044,VALID,0,VALID,99.9659,VALID,0,VALID,19.1987,VALID,7,VALID,0,
2003-12-26, 01:20:00,VALID,918.001,VALID,0,VALID,99.999,VALID,0.0169808,VALID,19.2141,VALID,7,VALID,0,
2003-12-26, 01:21:00,VALID,917.96,VALID,0,VALID,100,VALID,-0.0169808,VALID,19.2397,VALID,7,VALID,0,
2003-12-26, 01:22:00,VALID,917.924,VALID,0,VALID,100,VALID,0,VALID,19.2297,VALID,7,VALID,0,
2003-12-26, 01:23:00,VALID,917.893,VALID,0,VALID,100,VALID,0,VALID,19.23,VALID,7,VALID,0,
2003-12-26, 01:24:00,VALID,917.869,VALID,0,VALID,100,VALID,0,VALID,19.2339,VALID,7,VALID,0.0385417,
2003-12-26, 01:25:00,VALID,917.841,VALID,0,VALID,100,VALID,0,VALID,19.2464,VALID,7,VALID,0.29652,
2003-12-26, 01:26:00,VALID,917.827,VALID,0,VALID,100,VALID,-0.0169808,VALID,19.2558,VALID,7,VALID,0.149368,
2003-12-26, 01:27:00,VALID,917.802,VALID,0,VALID,100,VALID,0.0169808,VALID,19.2653,VALID,7,VALID,0.0130814,
2003-12-26, 01:28:00,VALID,917.792,VALID,0,VALID,100,VALID,-0.0169808,VALID,19.2849,VALID,7,VALID,0.00177557,
2003-12-26, 01:29:00,VALID,917.772,VALID,0,VALID,100,VALID,0,VALID,19.2881,VALID,7,VALID,0,
2003-12-26, 01:30:00,VALID,917.754,VALID,0,VALID,100,VALID,0.0169808,VALID,19.272,VALID,7,VALID,0.192014,
2003-12-26, 01:31:00,VALID,917.744,VALID,0,VALID,100,VALID,0,VALID,19.2429,VALID,16,VALID,0.59375,
2003-12-26, 01:32:00,VALID,917.737,VALID,0,VALID,100,VALID,0,VALID,19.1684,VALID,28,VALID,0.803052,
2003-12-26, 01:33:00,VALID,917.749,VALID,0,VALID,99.924,VALID,-0.0339617,VALID,19.1073,VALID,33,VALID,0.854883,
2003-12-26, 01:34:00,VALID,917.771,VALID,0,VALID,99.971,VALID,0,VALID,19.0847,VALID,34,VALID,0.868304,
2003-12-26, 01:35:00,VALID,917.793,VALID,0,VALID,99.9771,VALID,-0.0169808,VALID,19.0529,VALID,29,VALID,0.854226,
2003-12-26, 01:36:00,VALID,917.809,VALID,0,VALID,99.9957,VALID,-0.0169808,VALID,19.0335,VALID,17,VALID,0.836632,
2003-12-26, 01:37:00,VALID,917.825,VALID,0,VALID,99.9977,VALID,-0.0169808,VALID,19.0074,VALID,17,VALID,0.754883,
2003-12-26, 01:38:00,VALID,917.813,VALID,0,VALID,99.9682,VALID,-0.101885,VALID,18.9634,VALID,25,VALID,0.726563,
2003-12-26, 01:39:00,VALID,917.815,VALID,0,VALID,99.9809,VALID,-0.101885,VALID,18.908,VALID,30,VALID,0.731027,
2003-12-26, 01:40:00,VALID,917.805,VALID,0,VALID,100,VALID,-0.101885,VALID,18.8924,VALID,30,VALID,0.547991,
2003-12-26, 01:41:00,VALID,917.785,VALID,0,VALID,100,VALID,-0.0849042,VALID,18.8862,VALID,30,VALID,0.479611,
2003-12-26, 01:42:00,VALID,917.785,VALID,0,VALID,100,VALID,-0.101885,VALID,18.9053,VALID,27,VALID,0.435724,
2003-12-26, 01:43:00,VALID,917.782,VALID,0,VALID,100,VALID,-0.118866,VALID,18.8956,VALID,20,VALID,0.470424,
2003-12-26, 01:44:00,VALID,917.793,VALID,0,VALID,100,VALID,-0.118866,VALID,18.9085,VALID,19,VALID,0.378906,
2003-12-26, 01:45:00,VALID,917.842,VALID,0,VALID,100,VALID,-0.101885,VALID,18.9182,VALID,1,VALID,0.416243,
2003-12-26, 01:46:00,VALID,917.862,VALID,0,VALID,100,VALID,-0.101885,VALID,18.9189,VALID,335,VALID,0.627404,
2003-12-26, 01:47:00,VALID,917.884,VALID,0,VALID,100,VALID,-0.135847,VALID,18.9125,VALID,328,VALID,0.477515,
2003-12-26, 01:48:00,VALID,917.89,VALID,0,VALID,100,VALID,-0.0849042,VALID,18.9187,VALID,351,VALID,0.478091,
2003-12-26, 01:49:00,VALID,917.87,VALID,0,VALID,100,VALID,-0.0849042,VALID,18.9314,VALID,12,VALID,0.753089,
2003-12-26, 01:50:00,VALID,917.858,VALID,0,VALID,100,VALID,-0.101885,VALID,18.9478,VALID,18,VALID,0.879317,
2003-12-26, 01:51:00,VALID,917.843,VALID,0,VALID,100,VALID,-0.101885,VALID,18.957,VALID,350,VALID,0.835175,
2003-12-26, 01:52:00,VALID,917.841,VALID,0,VALID,100,VALID,-0.0849042,VALID,18.9438,VALID,314,VALID,0.429688,
2003-12-26, 01:53:00,VALID,917.819,VALID,0,VALID,100,VALID,0,VALID,18.9429,VALID,350,VALID,0.161644,
2003-12-26, 01:54:00,VALID,917.801,VALID,0,VALID,100,VALID,0,VALID,18.9493,VALID,350,VALID,0,
2003-12-26, 01:55:00,VALID,917.797,VALID,0,VALID,100,VALID,0,VALID,18.9816,VALID,349,VALID,0.0572917,
2003-12-26, 01:56:00,VALID,917.79,VALID,0,VALID,100,VALID,0,VALID,18.9977,VALID,350,VALID,0.0507813,
2003-12-26, 01:57:00,VALID,917.786,VALID,0,VALID,100,VALID,-0.0169808,VALID,19.0044,VALID,350,VALID,0,
2003-12-26, 01:58:00,VALID,917.774,VALID,0,VALID,100,VALID,-0.0339617,VALID,19.0303,VALID,350,VALID,0.0271577,
2003-12-26, 01:59:00,VALID,917.749,VALID,0,VALID,100,VALID,-0.0339617,VALID,19.0427,VALID,349,VALID,0.00223214,
2003-12-26, 02:00:00,VALID,917.74,VALID,0,VALID,100,VALID,0,VALID,19.0102,VALID,7,VALID,0.25109,
2003-12-26, 02:01:00,VALID,917.733,VALID,0,VALID,100,VALID,0.0169808,VALID,18.9945,VALID,46,VALID,0.443026,
2003-12-26, 02:02:00,VALID,917.729,VALID,0,VALID,100,VALID,0.0169808,VALID,18.9816,VALID,46,VALID,0.448401,
2003-12-26, 02:03:00,VALID,917.72,VALID,0,VALID,100,VALID,-0.0339617,VALID,18.9595,VALID,46,VALID,0.47561,
2003-12-26, 02:04:00,VALID,917.728,VALID,0,VALID,100,VALID,-0.0169808,VALID,18.9299,VALID,80,VALID,0.261052,
2003-12-26, 02:05:00,VALID,917.709,VALID,0,VALID,100,VALID,-0.0169808,VALID,18.9332,VALID,107,VALID,0.179865,
2003-12-26, 02:06:00,VALID,917.708,VALID,0,VALID,100,VALID,-0.0339617,VALID,18.9304,VALID,107,VALID,0.414773,
2003-12-26, 02:07:00,VALID,917.691,VALID,0,VALID,100,VALID,-0.0169808,VALID,18.9205,VALID,107,VALID,0.431974,
2003-12-26, 02:08:00,VALID,917.674,VALID,0,VALID,100,VALID,0,VALID,18.9429,VALID,106,VALID,0.380022,
2003-12-26, 02:09:00,VALID,917.653,VALID,0,VALID,100,VALID,0,VALID,18.9357,VALID,84,VALID,0.430432,
2003-12-26, 02:10:00,VALID,917.639,VALID,0,VALID,100,VALID,0,VALID,18.9237,VALID,83,VALID,0.303234,
2003-12-26, 02:11:00,VALID,917.605,VALID,0,VALID,100,VALID,0,VALID,18.9237,VALID,83,VALID,0.44122,
2003-12-26, 02:12:00,VALID,917.586,VALID,0,VALID,100,VALID,0,VALID,18.9207,VALID,83,VALID,0.573946,
2003-12-26, 02:13:00,VALID,917.558,VALID,0,VALID,100,VALID,0,VALID,18.9332,VALID,90,VALID,0.62282,
2003-12-26, 02:14:00,VALID,917.534,VALID,0,VALID,100,VALID,-0.0169808,VALID,18.9334,VALID,107,VALID,0.69308,
2003-12-26, 02:15:00,VALID,917.523,VALID,0,VALID,100,VALID,0,VALID,18.9592,VALID,116,VALID,0.730219,
2003-12-26, 02:16:00,VALID,917.488,VALID,0,VALID,100,VALID,0,VALID,18.9622,VALID,125,VALID,0.740473,
2003-12-26, 02:17:00,VALID,917.472,VALID,0,VALID,100,VALID,0,VALID,18.9332,VALID,128,VALID,0.518056,
2003-12-26, 02:18:00,VALID,917.446,VALID,0,VALID,100,VALID,0,VALID,18.9366,VALID,153,VALID,0.559261,
2003-12-26, 02:19:00,VALID,917.431,VALID,0,VALID,100,VALID,-0.0169808,VALID,18.9369,VALID,155,VALID,0.450462,
2003-12-26, 02:20:00,VALID,917.4,VALID,0,VALID,100,VALID,-0.0169808,VALID,18.9391,VALID,155,VALID,0.29809,
2003-12-26, 02:21:00,VALID,917.382,VALID,0,VALID,100,VALID,-0.0339617,VALID,18.9692,VALID,155,VALID,0.231055,
2003-12-26, 02:22:00,VALID,917.361,VALID,0,VALID,100,VALID,-0.0169808,VALID,18.9722,VALID,140,VALID,0.53853,
2003-12-26, 02:23:00,VALID,917.35,VALID,0,VALID,100,VALID,0,VALID,18.9722,VALID,127,VALID,0.70191,
2003-12-26, 02:24:00,VALID,917.358,VALID,0,VALID,100,VALID,-0.0169808,VALID,18.9722,VALID,106,VALID,0.494531,
2003-12-26, 02:25:00,VALID,917.37,VALID,0,VALID,100,VALID,0,VALID,18.9816,VALID,92,VALID,0.334635,
2003-12-26, 02:26:00,VALID,917.394,VALID,0,VALID,100,VALID,0,VALID,18.9712,VALID,92,VALID,0.369048,
2003-12-26, 02:27:00,VALID,917.38,VALID,0,VALID,100,VALID,0,VALID,18.9786,VALID,83,VALID,0.375744,
2003-12-26, 02:28:00,VALID,917.389,VALID,0,VALID,100,VALID,-0.0169808,VALID,18.9498,VALID,58,VALID,0.537064,
2003-12-26, 02:29:00,VALID,917.388,VALID,0,VALID,100,VALID,0,VALID,18.9336,VALID,57,VALID,0.369234,
2003-12-26, 02:30:00,VALID,917.379,VALID,0,VALID,100,VALID,-0.0169808,VALID,18.9205,VALID,57,VALID,0.246982,
2003-12-26, 02:31:00,VALID,917.368,VALID,0,VALID,100,VALID,-0.0169808,VALID,18.9364,VALID,57,VALID,0.366257,
2003-12-26, 02:32:00,VALID,917.354,VALID,0,VALID,100,VALID,-0.0169808,VALID,18.9684,VALID,57,VALID,0.380952,
2003-12-26, 02:33:00,VALID,917.352,VALID,0,VALID,100,VALID,0,VALID,18.9781,VALID,57,VALID,0.251367,
2003-12-26, 02:34:00,VALID,917.355,VALID,0,VALID,100,VALID,-0.0339617,VALID,18.9754,VALID,57,VALID,0.115371,
2003-12-26, 02:35:00,VALID,917.382,VALID,0,VALID,100,VALID,0,VALID,18.9617,VALID,57,VALID,0,
2003-12-26, 02:36:00,VALID,917.38,VALID,0,VALID,100,VALID,-0.0339617,VALID,18.9617,VALID,57,VALID,0,
2003-12-26, 02:37:00,VALID,917.368,VALID,0,VALID,100,VALID,0,VALID,18.9456,VALID,57,VALID,0,
2003-12-26, 02:38:00,VALID,917.372,VALID,0,VALID,100,VALID,0,VALID,18.9394,VALID,57,VALID,0,
2003-12-26, 02:39:00,VALID,917.387,VALID,0,VALID,100,VALID,0.0169808,VALID,18.9198,VALID,57,VALID,0,
2003-12-26, 02:40:00,VALID,917.396,VALID,0,VALID,100,VALID,0,VALID,18.9066,VALID,57,VALID,0,
2003-12-26, 02:41:00,VALID,917.39,VALID,0,VALID,100,VALID,0,VALID,18.9108,VALID,57,VALID,0,
2003-12-26, 02:42:00,VALID,917.381,VALID,0,VALID,100,VALID,-0.0169808,VALID,18.9076,VALID,57,VALID,0,
2003-12-26, 02:43:00,VALID,917.377,VALID,0,VALID,100,VALID,-0.0169808,VALID,18.9009,VALID,57,VALID,0,
2003-12-26, 02:44:00,VALID,917.393,VALID,0,VALID,100,VALID,0,VALID,18.885,VALID,57,VALID,0,
2003-12-26, 02:45:00,VALID,917.392,VALID,0,VALID,100,VALID,-0.0169808,VALID,18.8428,VALID,57,VALID,0,
2003-12-26, 02:46:00,VALID,917.409,VALID,0,VALID,100,VALID,0,VALID,18.7911,VALID,57,VALID,0,
2003-12-26, 02:47:00,VALID,917.412,VALID,0,VALID,100,VALID,0,VALID,18.7752,VALID,57,VALID,0,
2003-12-26, 02:48:00,VALID,917.414,VALID,0,VALID,100,VALID,-0.0339617,VALID,18.7625,VALID,57,VALID,0,
2003-12-26, 02:49:00,VALID,917.422,VALID,0,VALID,100,VALID,0,VALID,18.7623,VALID,57,VALID,0.0169271,
2003-12-26, 02:50:00,VALID,917.437,VALID,0,VALID,100,VALID,-0.0339617,VALID,18.7466,VALID,57,VALID,0.0543403,
2003-12-26, 02:51:00,VALID,917.462,VALID,0,VALID,100,VALID,0,VALID,18.7265,VALID,57,VALID,0,
2003-12-26, 02:52:00,VALID,917.493,VALID,0,VALID,100,VALID,-0.0339617,VALID,18.7208,VALID,57,VALID,0,
2003-12-26, 02:53:00,VALID,917.505,VALID,0,VALID,100,VALID,0,VALID,18.6903,VALID,57,VALID,0,
2003-12-26, 02:54:00,VALID,917.511,VALID,0,VALID,100,VALID,0,VALID,18.6942,VALID,57,VALID,0,
2003-12-26, 02:55:00,VALID,917.512,VALID,0,VALID,100,VALID,0,VALID,18.6972,VALID,57,VALID,0,
2003-12-26, 02:56:00,VALID,917.49,VALID,0,VALID,100,VALID,0,VALID,18.6917,VALID,57,VALID,0.0336682,
2003-12-26, 02:57:00,VALID,917.456,VALID,0,VALID,100,VALID,0,VALID,18.6361,VALID,57,VALID,0.449405,
2003-12-26, 02:58:00,VALID,917.447,VALID,0,VALID,100,VALID,-0.0509425,VALID,18.6075,VALID,53,VALID,0.535069,
2003-12-26, 02:59:00,VALID,917.434,VALID,0,VALID,100,VALID,-0.0339617,VALID,18.5718,VALID,48,VALID,0.610069,
2003-12-26, 03:00:00,VALID,917.438,VALID,0,VALID,100,VALID,0,VALID,18.5522,VALID,42,VALID,0.719551,
2003-12-26, 03:01:00,VALID,917.432,VALID,0,VALID,100,VALID,0.0169808,VALID,18.6073,VALID,22,VALID,0.941883,
2003-12-26, 03:02:00,VALID,917.445,VALID,0,VALID,100,VALID,0,VALID,18.6659,VALID,14,VALID,0.851563,
2003-12-26, 03:03:00,VALID,917.458,VALID,0,VALID,100,VALID,0,VALID,18.6458,VALID,14,VALID,0.778011,
2003-12-26, 03:04:00,VALID,917.456,VALID,0,VALID,100,VALID,0,VALID,18.6301,VALID,19,VALID,0.894886,
2003-12-26, 03:05:00,VALID,917.457,VALID,0,VALID,100,VALID,-0.0169808,VALID,18.6497,VALID,21,VALID,0.685785,
2003-12-26, 03:06:00,VALID,917.437,VALID,0,VALID,100,VALID,-0.0169808,VALID,18.6433,VALID,21,VALID,0.736328,
2003-12-26, 03:07:00,VALID,917.427,VALID,0,VALID,100,VALID,-0.0169808,VALID,18.6495,VALID,29,VALID,0.850419,
2003-12-26, 03:08:00,VALID,917.432,VALID,0,VALID,100,VALID,-0.0169808,VALID,18.6657,VALID,31,VALID,1.04869,
2003-12-26, 03:09:00,VALID,917.422,VALID,0,VALID,100,VALID,-0.0339617,VALID,18.653,VALID,25,VALID,0.78487,
2003-12-26, 03:10:00,VALID,917.406,VALID,0,VALID,100,VALID,-0.0339617,VALID,18.6657,VALID,20,VALID,0.949119,
2003-12-26, 03:11:00,VALID,917.413,VALID,0,VALID,100,VALID,-0.0169808,VALID,18.7081,VALID,13,VALID,1.37127,
2003-12-26, 03:12:00,VALID,917.407,VALID,0,VALID,100,VALID,-0.0339617,VALID,18.7524,VALID,6,VALID,0.956676,
2003-12-26, 03:13:00,VALID,917.413,VALID,0,VALID,100,VALID,0,VALID,18.8206,VALID,1,VALID,0.844815,
2003-12-26, 03:14:00,VALID,917.4,VALID,0,VALID,100,VALID,-0.0169808,VALID,18.8363,VALID,9,VALID,0.754464,
2003-12-26, 03:15:00,VALID,917.405,VALID,0,VALID,100,VALID,0,VALID,18.8495,VALID,12,VALID,1.07351,
2003-12-26, 03:16:00,VALID,917.404,VALID,0,VALID,100,VALID,-0.0169808,VALID,18.8594,VALID,8,VALID,1.07051,
2003-12-26, 03:17:00,VALID,917.419,VALID,0,VALID,100,VALID,-0.0339617,VALID,18.8723,VALID,11,VALID,1.28214,
2003-12-26, 03:18:00,VALID,917.421,VALID,0,VALID,100,VALID,-0.0339617,VALID,18.8822,VALID,4,VALID,0.801339,
2003-12-26, 03:19:00,VALID,917.43,VALID,0,VALID,100,VALID,-0.0509425,VALID,18.9014,VALID,13,VALID,0.925967,
2003-12-26, 03:20:00,VALID,917.424,VALID,0,VALID,100,VALID,-0.0339617,VALID,18.924,VALID,12,VALID,1.45629,
2003-12-26, 03:21:00,VALID,917.428,VALID,0,VALID,100,VALID,-0.0509425,VALID,18.9039,VALID,13,VALID,1.6755,
2003-12-26, 03:22:00,VALID,917.428,VALID,0,VALID,100,VALID,-0.0679233,VALID,18.9175,VALID,15,VALID,1.35252,
2003-12-26, 03:23:00,VALID,917.428,VALID,0,VALID,100,VALID,-0.0339617,VALID,18.9014,VALID,2,VALID,1.39635,
2003-12-26, 03:24:00,VALID,917.434,VALID,0,VALID,100,VALID,-0.0509425,VALID,18.9016,VALID,8,VALID,1.50999,
2003-12-26, 03:25:00,VALID,917.42,VALID,0,VALID,100,VALID,-0.0169808,VALID,18.8914,VALID,1,VALID,1.38072,
2003-12-26, 03:26:00,VALID,917.413,VALID,0,VALID,100,VALID,-0.0509425,VALID,18.8919,VALID,3,VALID,1.44568,
2003-12-26, 03:27:00,VALID,917.415,VALID,0,VALID,100,VALID,-0.0339617,VALID,18.8949,VALID,2,VALID,1.45694,
2003-12-26, 03:28:00,VALID,917.412,VALID,0,VALID,100,VALID,-0.0339617,VALID,18.908,VALID,9,VALID,1.42835,
2003-12-26, 03:29:00,VALID,917.42,VALID,0,VALID,100,VALID,-0.0509425,VALID,18.9371,VALID,16,VALID,1.97861,
2003-12-26, 03:30:00,VALID,917.423,VALID,0,VALID,100,VALID,-0.0339617,VALID,18.9429,VALID,352,VALID,1.06479,
2003-12-26, 03:31:00,VALID,917.432,VALID,0,VALID,100,VALID,-0.0169808,VALID,18.9498,VALID,6,VALID,1.12109,
2003-12-26, 03:32:00,VALID,917.449,VALID,0,VALID,100,VALID,-0.0509425,VALID,18.956,VALID,349,VALID,0.68657,
2003-12-26, 03:33:00,VALID,917.456,VALID,0,VALID,100,VALID,0,VALID,18.9627,VALID,325,VALID,0.535352,
2003-12-26, 03:34:00,VALID,917.449,VALID,0,VALID,100,VALID,0,VALID,18.9754,VALID,4,VALID,0.171131,
2003-12-26, 03:35:00,VALID,917.448,VALID,0,VALID,100,VALID,-0.0509425,VALID,19.0213,VALID,4,VALID,0.00334821,
2003-12-26, 03:36:00,VALID,917.444,VALID,0,VALID,100,VALID,-0.0339617,VALID,19.0402,VALID,8,VALID,0.239347,
2003-12-26, 03:37:00,VALID,917.438,VALID,0,VALID,100,VALID,0,VALID,19.0653,VALID,29,VALID,0.407422,
2003-12-26, 03:38:00,VALID,917.439,VALID,0,VALID,100,VALID,-0.0169808,VALID,19.0591,VALID,29,VALID,1.27943,
2003-12-26, 03:39:00,VALID,917.469,VALID,0,VALID,100,VALID,-0.0169808,VALID,19.0847,VALID,14,VALID,0.759084,
2003-12-26, 03:40:00,VALID,917.484,VALID,0,VALID,100,VALID,-0.0169808,VALID,19.0879,VALID,336,VALID,0.73457,
2003-12-26, 03:41:00,VALID,917.507,VALID,0,VALID,100,VALID,0,VALID,19.0983,VALID,14,VALID,1.21502,
2003-12-26, 03:42:00,VALID,917.507,VALID,0,VALID,100,VALID,0,VALID,19.1011,VALID,357,VALID,0.876698,
2003-12-26, 03:43:00,VALID,917.512,VALID,0,VALID,100,VALID,-0.0169808,VALID,19.1013,VALID,11,VALID,0.719122,
2003-12-26, 03:44:00,VALID,917.515,VALID,0,VALID,100,VALID,-0.0169808,VALID,19.1112,VALID,13,VALID,0.911156,